{"data":{"norad_id":60350,"intl_designator":"2024-136X","name":"STARLINK-32076","alt_names":[],"object_type":"PAYLOAD","status":"ACTIVE","operator":null,"country":"US","launch_date":"2024-08-02","launch_site_code":"AFETR","launch_vehicle":null,"mission":null,"orbit_class":"UNKNOWN","rcs_meters":null,"size_class":null,"mass_kg":null,"dimensions":null,"purposes":["comms"],"wikipedia_slug":null,"has_3d_model":false,"image_url":null,"decayed_at":null,"tle_current":{"epoch":"2026-05-25T04:47:04.158816Z","epoch_age_seconds":51756,"freshness":"FRESH","line1":"1 60350U 24136X   26145.19935369 -.00000685  00000+0 -10303-4 0  9994","line2":"2 60350  53.1614  79.9177 0001327  95.3008 264.8145 15.31696107101386","mean_motion":15.31696107,"eccentricity":0.0001327,"inclination_deg":53.1614,"raan_deg":79.9177,"arg_perigee_deg":95.3008,"mean_anomaly_deg":264.8145,"bstar":-1.0303e-5,"rev_number":10138,"period_min":94.013426907535,"perigee_km":469.84275256342,"apogee_km":471.66044759788,"semimajor_km":6848.8886000807,"source":"CELESTRAK","updated_at":"2026-05-25T13:38:19.237150Z"}}}